Location: Unspecified
(0.0000°N, 0.0000°E)
Time: 23:24:54
(UTC+00:00)

Hubble Space Telescope - Visible Passes

Search period start: 18 May 2024 00:00
Search period end: 28 May 2024 00:00
Orbit: 512 x 516 km, 28.5° (Epoch: 18 May)

Date Brightness Start Highest point End Pass type
(mag) Time Alt. Az. Time Alt. Az. Time Alt. Az.
18 May 2.2 18:48:55 10° SSW 18:51:42 18° SSE 18:52:18 17° SE visible
19 May 2.1 18:29:57 10° SSW 18:33:04 22° SSE 18:35:43 12° ESE visible
19 May 3.4 20:09:44 10° WSW 20:10:37 16° WSW 20:10:37 16° WSW visible
20 May 2.0 19:51:10 10° WSW 19:54:12 38° WNW 19:54:12 38° WNW visible
21 May 2.1 19:32:36 10° W 19:36:16 34° NNW 19:37:49 25° NNE visible
22 May 2.6 19:14:05 10° W 19:17:33 28° NNW 19:21:00 10° NNE visible
23 May 1.9 05:23:47 10° NW 05:27:34 43° NNE 05:31:22 10° ESE visible
23 May 3.0 18:55:35 10° W 18:58:48 23° NNW 19:02:01 10° NNE visible
24 May 1.4 05:04:56 10° NW 05:08:49 55° NNE 05:12:43 10° ESE visible
24 May 3.3 18:37:08 10° WNW 18:40:03 19° NNW 18:42:58 10° NNE visible
25 May 0.9 04:46:41 14° NW 04:50:02 69° NNE 04:54:00 10° ESE visible
25 May 3.5 18:18:46 10° WNW 18:21:17 16° NNW 18:23:49 10° NNE visible
26 May 0.5 04:30:13 48° WNW 04:31:14 87° NNE 04:35:13 10° ESE visible
27 May 1.5 04:13:40 41° SE 04:13:40 41° SE 04:16:23 10° SE visible
